KF0ZH Weather Reports


Display with metric or nautical units.
time (UTC)temp
F
wind
direction
speed
MPH
gust
MPH
rain 1hr
in
rain 24hr
in
rain mn
in
humidity
%
barometer
mb
20260506202157 44 296 4.0 10.0 0.00 0.00 0.00 63 1015.7
20260506201656 44 203 0.0 9.0 0.00 0.00 0.00 63 1015.6
20260506201159 45 327 0.0 10.0 0.00 0.00 0.00 63 1015.5
20260506200703 45 337 4.0 8.0 0.00 0.00 0.00 63 1015.7
20260506200203 44 316 0.0 4.0 0.00 0.00 0.00 65 1015.7
20260506195657 44 184 0.0 12.0 0.00 0.00 0.00 65 1015.7
20260506195243 44 246 5.0 5.0 0.00 0.00 0.00 66 1015.7
20260506195207 44 246 5.0 5.0 0.00 0.00 0.00 66 1015.7
20260506194657 44 243 5.0 9.0 0.00 0.00 0.00 66 1015.7
20260506194158 43 240 3.0 9.0 0.00 0.00 0.00 65 1015.8
20260506193156 43 352 8.0 11.0 0.00 0.00 0.00 66 1015.7
20260506192656 44 288 0.0 12.0 0.00 0.00 0.00 65 1015.8
20260506192157 44 270 3.0 7.0 0.00 0.00 0.00 65 1015.8
20260506191656 44 247 6.0 10.0 0.00 0.00 0.00 64 1015.8
20260506191157 44 295 5.0 8.0 0.00 0.00 0.00 64 1015.8
20260506190656 43 295 0.0 9.0 0.00 0.00 0.00 66 1015.7
20260506190157 43 241 6.0 7.0 0.00 0.00 0.00 66 1015.7
20260506185159 43 326 5.0 5.0 0.00 0.00 0.00 67 1015.8
20260506184656 43 285 0.0 9.0 0.00 0.00 0.00 67 1015.9
20260506184158 42 286 3.0 12.0 0.00 0.00 0.00 66 1015.9
20260506183657 43 306 11.0 15.0 0.00 0.00 0.00 66 1015.9
20260506182658 43 284 4.0 13.0 0.00 0.00 0.00 64 1016.0
20260506182306 43 298 1.0 8.0 0.00 0.00 0.00 66 1016.0
20260506182159 43 298 1.0 8.0 0.00 0.00 0.00 66 1016.0
20260506181657 42 267 0.0 10.0 0.00 0.00 0.00 66 1016.0
20260506181158 42 295 7.0 12.0 0.00 0.00 0.00 65 1016.1
20260506180657 42 295 11.0 11.0 0.00 0.00 0.00 65 1016.3
20260506180157 42 267 9.0 13.0 0.00 0.00 0.00 66 1016.3
20260506175657 42 11 0.0 13.0 0.00 0.00 0.00 67 1016.3
20260506175158 42 309 6.0 7.0 0.00 0.00 0.00 66 1016.3
20260506174657 42 267 6.0 13.0 0.00 0.00 0.00 65 1016.5
20260506174159 43 312 0.0 8.0 0.00 0.00 0.00 66 1016.5
20260506173657 42 306 7.0 7.0 0.00 0.00 0.00 66 1016.4
20260506172657 42 305 3.0 7.0 0.00 0.00 0.00 66 1016.6
20260506172200 42 300 7.0 9.0 0.00 0.00 0.00 65 1016.6
20260506171657 42 358 2.0 7.0 0.00 0.00 0.00 66 1016.6
20260506171157 42 281 0.0 9.0 0.00 0.00 0.00 66 1016.7
20260506170656 42 268 0.0 9.0 0.00 0.00 0.00 67 1016.7
20260506165656 41 351 0.0 5.0 0.00 0.00 0.00 67 1016.8
20260506165157 41 326 5.0 11.0 0.00 0.00 0.00 66 1016.9
20260506164656 41 336 0.0 11.0 0.00 0.00 0.00 67 1016.9
20260506163656 41 239 0.0 14.0 0.00 0.00 0.00 67 1016.8
20260506163156 41 324 0.0 6.0 0.00 0.00 0.00 67 1016.9
20260506162659 41 329 3.0 10.0 0.00 0.00 0.00 67 1016.9
20260506162157 40 306 0.0 10.0 0.00 0.00 0.00 68 1016.8
20260506161657 40 275 3.0 8.0 0.00 0.00 0.00 67 1016.9
20260506161157 41 296 7.0 9.0 0.00 0.00 0.00 66 1016.9
20260506160658 41 289 0.0 8.0 0.00 0.00 0.00 67 1016.8
20260506160156 41 292 6.0 6.0 0.00 0.00 0.00 67 1016.8
20260506155656 40 307 0.0 11.0 0.00 0.00 0.00 67 1016.9
20260506154657 40 258 0.0 9.0 0.00 0.00 0.00 67 1016.7
20260506154157 40 7 0.0 10.0 0.00 0.00 0.00 67 1016.7
20260506153657 40 271 5.0 9.0 0.00 0.00 0.00 67 1016.7
20260506153156 40 261 0.0 11.0 0.00 0.00 0.00 67 1016.6
20260506152656 40 293 0.0 0.0 0.00 0.00 0.00 69 1016.6
20260506152157 40 260 4.0 7.0 0.00 0.00 0.00 69 1016.6
20260506151656 40 282 3.0 8.0 0.00 0.00 0.00 69 1016.6
20260506150656 40 307 0.0 5.0 0.00 0.00 0.00 70 1016.6
20260506150157 40 289 0.0 2.0 0.00 0.00 0.00 70 1016.6
20260506145657 39 289 0.0 4.0 0.00 0.00 0.00 70 1016.7
20260506145159 39 336 0.0 9.0 0.00 0.00 0.00 70 1016.7
20260506144656 39 338 0.0 0.0 0.00 0.00 0.00 71 1016.7
20260506143656 39 288 0.0 2.0 0.00 0.00 0.00 70 1016.7
20260506143156 39 270 8.0 9.0 0.00 0.00 0.00 71 1016.6
20260506142656 39 341 0.0 7.0 0.00 0.00 0.00 71 1016.6
20260506142157 39 295 0.0 0.0 0.00 0.00 0.00 71 1016.6
20260506141657 39 337 3.0 7.0 0.00 0.00 0.00 71 1016.7
20260506140703 38 358 0.0 5.0 0.00 0.00 0.00 71 1016.6
20260506135657 38 313 0.0 7.0 0.00 0.00 0.00 70 1016.6
20260506135157 38 298 3.0 7.0 0.00 0.00 0.00 71 1016.5
20260506134656 38 279 0.0 11.0 0.00 0.00 0.00 70 1016.5
20260506133656 38 278 0.0 5.0 0.00 0.00 0.00 71 1016.4
20260506133156 38 277 0.0 0.0 0.00 0.00 0.00 71 1016.4
20260506132656 38 337 0.0 9.0 0.00 0.00 0.00 71 1016.4
20260506132157 38 316 0.0 6.0 0.00 0.00 0.00 71 1016.4
20260506131657 38 307 6.0 7.0 0.00 0.00 0.00 72 1016.3
20260506131158 38 322 0.0 7.0 0.00 0.00 0.00 72 1016.2
20260506130657 38 315 0.0 10.0 0.00 0.00 0.00 72 1016.1
20260506130157 38 329 5.0 9.0 0.00 0.00 0.00 73 1016.1
20260506125657 38 347 0.0 11.0 0.00 0.00 0.00 77 1016.0
20260506125204 38 285 0.0 3.0 0.00 0.00 0.00 79 1015.9
20260506124700 37 322 0.0 4.0 0.00 0.00 0.00 80 1015.9
20260506123656 37 247 0.0 0.0 0.00 0.00 0.00 83 1015.8
20260506123156 36 188 0.0 0.0 0.00 0.00 0.00 84 1015.8
20260506122656 36 261 0.0 0.0 0.00 0.00 0.00 85 1015.7
20260506122306 36 261 0.0 0.0 0.00 0.00 0.00 86 1015.6
20260506122157 36 261 0.0 0.0 0.00 0.00 0.00 86 1015.6
20260506120657 35 219 0.0 0.0 0.00 0.00 0.00 87 1015.3
20260506120158 34 292 0.0 0.0 0.00 0.00 0.00 88 1015.3
20260506115657 33 292 0.0 0.0 0.00 0.00 0.00 89 1015.2
20260506115204 33 299 0.0 0.0 0.00 0.00 0.00 90 1015.1
20260506114156 32 299 0.0 0.0 0.00 0.00 0.00 91 1014.8
20260506113657 32 299 0.0 0.0 0.00 0.00 0.00 91 1014.8
20260506113156 32 299 0.0 0.0 0.00 0.00 0.00 91 1014.7
20260506112656 31 299 0.0 0.0 0.00 0.00 0.00 91 1014.6
20260506112156 31 299 0.0 0.0 0.00 0.00 0.00 91 1014.6
20260506110656 31 299 0.0 0.0 0.00 0.00 0.00 90 1014.4
20260506105656 31 299 0.0 0.0 0.00 0.00 0.00 90 1014.6
20260506105156 31 299 0.0 0.0 0.00 0.00 0.00 90 1014.7
20260506104656 31 299 0.0 0.0 0.00 0.00 0.00 91 1014.7
20260506104156 31 299 0.0 0.0 0.00 0.00 0.00 91 1014.7
20260506103656 31 299 0.0 0.0 0.00 0.00 0.00 91 1014.7
20260506102657 31 299 0.0 0.0 0.00 0.00 0.00 91 1014.6
20260506102158 31 299 0.0 0.0 0.00 0.00 0.00 90 1014.5
20260506101656 31 299 0.0 0.0 0.00 0.00 0.00 90 1014.5
20260506101156 32 299 0.0 0.0 0.00 0.00 0.00 90 1014.3
20260506100656 31 299 0.0 0.0 0.00 0.00 0.00 90 1014.3
20260506100156 31 299 0.0 0.0 0.00 0.00 0.00 89 1014.2
20260506095656 31 299 0.0 0.0 0.00 0.00 0.00 88 1014.2
20260506095156 31 299 0.0 0.0 0.00 0.00 0.00 88 1014.2
20260506094656 31 299 0.0 0.0 0.00 0.00 0.00 88 1014.2
20260506094156 31 299 0.0 0.0 0.00 0.00 0.00 88 1014.1
20260506093656 32 299 0.0 0.0 0.00 0.00 0.00 87 1014.1
20260506093156 31 299 0.0 0.0 0.00 0.00 0.00 87 1014.1
20260506092656 32 299 0.0 0.0 0.00 0.00 0.00 86 1014.1
20260506092250 31 299 0.0 0.0 0.00 0.00 0.00 85 1014.0
20260506092203 31 299 0.0 0.0 0.00 0.00 0.00 85 1014.0
20260506091656 32 299 0.0 0.0 0.00 0.00 0.00 85 1014.1
20260506091156 32 299 0.0 0.0 0.00 0.00 0.00 84 1014.1
20260506090656 33 299 0.0 0.0 0.00 0.00 0.00 84 1014.1
20260506090156 33 299 0.0 0.0 0.00 0.00 0.00 84 1014.2
20260506085656 32 299 0.0 0.0 0.00 0.00 0.00 83 1014.1
20260506085156 33 299 0.0 0.0 0.00 0.00 0.00 83 1014.0
20260506084656 33 299 0.0 0.0 0.00 0.00 0.00 82 1013.9
20260506084156 33 299 0.0 0.0 0.00 0.00 0.00 81 1013.7
20260506083656 33 299 0.0 0.0 0.00 0.00 0.00 80 1013.6
20260506083159 34 299 0.0 0.0 0.00 0.00 0.00 79 1013.6
20260506082656 34 299 0.0 0.0 0.00 0.00 0.00 79 1013.5
20260506082203 34 299 0.0 0.0 0.00 0.00 0.00 78 1013.6
20260506081656 34 299 0.0 0.0 0.00 0.00 0.00 78 1013.6
20260506081156 34 299 0.0 0.0 0.00 0.00 0.00 77 1013.7
20260506080656 35 299 0.0 0.0 0.00 0.00 0.00 76 1013.8
20260506073157 37 299 0.0 0.0 0.00 0.00 0.00 72 1013.4
20260506072656 38 299 0.0 0.0 0.00 0.00 0.00 72 1013.3
20260506072203 38 299 0.0 0.0 0.00 0.00 0.00 72 1013.2
20260506071656 38 299 3.0 8.0 0.00 0.00 0.00 72 1013.2
20260506071156 38 341 0.0 0.0 0.00 0.00 0.00 72 1013.2
20260506070656 38 341 0.0 3.0 0.00 0.00 0.00 71 1013.2
20260506070156 38 323 0.0 0.0 0.00 0.00 0.00 71 1013.3
20260506062156 39 289 0.0 0.0 0.00 0.00 0.00 70 1013.3
20260506061656 39 358 0.0 0.0 0.00 0.00 0.00 70 1013.2
20260506061156 39 333 0.0 3.0 0.00 0.00 0.00 70 1013.2
20260506060656 39 324 0.0 6.0 0.00 0.00 0.00 69 1013.2
20260506060158 39 340 4.0 9.0 0.00 0.00 0.00 69 1013.2
20260506051157 40 288 0.0 3.0 0.00 0.00 0.00 68 1012.7
20260506050659 40 275 0.0 0.0 0.00 0.00 0.00 68 1012.6
20260506050156 41 272 5.0 5.0 0.00 0.00 0.00 68 1012.5
20260506044656 41 289 0.0 0.0 0.00 0.00 0.00 67 1012.4
20260506044156 41 289 0.0 0.0 0.00 0.00 0.00 67 1012.4
20260506043656 41 289 4.0 5.0 0.00 0.00 0.00 66 1012.4
20260506043156 41 324 0.0 8.0 0.00 0.00 0.00 66 1012.4
20260506042655 41 354 4.0 9.0 0.00 0.00 0.00 66 1012.4
20260506041655 42 326 5.0 12.0 0.00 0.00 0.00 66 1012.3
20260506041155 42 326 0.0 5.0 0.00 0.00 0.00 67 1012.3
20260506040656 42 331 0.0 0.0 0.00 0.00 0.00 67 1012.3
20260506040155 42 331 0.0 0.0 0.00 0.00 0.00 67 1012.3
20260506035655 42 337 4.0 4.0 0.00 0.00 0.00 67 1012.3
20260506035230 42 277 0.0 5.0 0.00 0.00 0.00 67 1012.2
20260506035156 42 277 0.0 5.0 0.00 0.00 0.00 67 1012.2
20260506034656 42 343 3.0 7.0 0.00 0.00 0.00 67 1012.2
20260506034156 43 317 0.0 5.0 0.00 0.00 0.00 66 1012.2
20260506033656 43 345 0.0 8.0 0.00 0.00 0.00 66 1012.1
20260506033155 43 340 0.0 8.0 0.00 0.00 0.00 65 1012.1
20260506032655 43 254 2.0 7.0 0.00 0.00 0.00 66 1012.0
20260506032156 43 315 0.0 13.0 0.00 0.00 0.00 65 1012.0
20260506031655 43 322 4.0 4.0 0.00 0.00 0.00 65 1011.9
20260506031155 43 322 6.0 8.0 0.00 0.00 0.00 65 1011.9
20260506030655 43 337 7.0 7.0 0.00 0.00 0.00 65 1011.9
20260506030155 44 315 0.0 4.0 0.00 0.00 0.00 64 1011.8
20260506025655 44 317 8.0 13.0 0.00 0.00 0.00 64 1011.7
20260506025156 44 293 0.0 0.0 0.00 0.00 0.00 63 1011.7
20260506024656 44 293 0.0 0.0 0.00 0.00 0.00 63 1011.5
20260506024156 44 293 0.0 8.0 0.00 0.00 0.00 62 1011.4
20260506023657 44 286 0.0 13.0 0.00 0.00 0.00 62 1011.2
20260506023157 44 312 0.0 7.0 0.00 0.00 0.00 62 1011.1
20260506022655 45 323 6.0 11.0 0.00 0.00 0.00 62 1011.0
20260506022158 45 320 2.0 7.0 0.00 0.00 0.00 61 1011.0
20260506021656 45 289 0.0 0.0 0.00 0.00 0.00 60 1010.9
20260506021156 45 289 0.0 0.0 0.00 0.00 0.00 60 1010.9
20260506020655 45 306 0.0 5.0 0.00 0.00 0.00 60 1010.8
20260506020155 45 345 0.0 5.0 0.00 0.00 0.00 59 1010.7
20260506015655 45 323 0.0 8.0 0.00 0.00 0.00 59 1010.5
20260506015158 46 324 0.0 4.0 0.00 0.00 0.00 59 1010.4
20260506014657 46 309 0.0 8.0 0.00 0.00 0.00 58 1010.4
20260506014155 46 298 0.0 3.0 0.00 0.00 0.00 58 1010.4
20260506013655 46 317 4.0 7.0 0.00 0.00 0.00 57 1010.3
20260506012656 47 337 0.0 0.0 0.00 0.00 0.00 58 1010.2
20260506012157 47 272 0.0 0.0 0.00 0.00 0.00 57 1010.1
20260506011655 47 331 0.0 8.0 0.00 0.00 0.00 57 1010.0
20260506011155 47 312 7.0 15.0 0.00 0.00 0.00 56 1010.0
20260506010656 47 320 0.0 9.0 0.00 0.00 0.00 56 1009.9
20260506010156 47 303 1.0 12.0 0.00 0.00 0.00 56 1009.8
20260506005655 48 326 11.0 17.0 0.00 0.00 0.00 55 1009.8
20260506005156 48 320 4.0 4.0 0.00 0.00 0.00 55 1009.7
20260506004655 48 317 0.0 13.0 0.00 0.00 0.00 54 1009.7
20260506004156 48 292 9.0 11.0 0.00 0.00 0.00 54 1009.6
20260506003155 48 358 5.0 9.0 0.00 0.00 0.00 55 1009.5
20260506002655 48 337 11.0 18.0 0.00 0.00 0.00 55 1009.5
20260506002156 48 323 0.0 10.0 0.00 0.00 0.00 55 1009.4
20260506001656 48 309 6.0 10.0 0.00 0.00 0.00 54 1009.3
20260506001156 48 334 0.0 10.0 0.00 0.00 0.00 54 1009.2
20260506000657 48 299 8.0 11.0 0.00 0.00 0.00 54 1009.1
20260505235158 49 337 0.0 5.0 0.00 0.00 0.00 54 1009.2
20260505234657 49 340 4.0 8.0 0.00 0.00 0.00 54 1009.2
20260505234157 49 258 0.0 9.0 0.00 0.00 0.00 53 1009.2
20260505233657 49 330 6.0 8.0 0.00 0.00 0.00 53 1009.2
20260505233157 50 261 7.0 10.0 0.00 0.00 0.00 52 1009.3
20260505232158 50 298 5.0 6.0 0.00 0.00 0.00 52 1009.3
20260505231657 50 278 0.0 11.0 0.00 0.00 0.00 51 1009.3
20260505231157 50 255 1.0 11.0 0.00 0.00 0.00 52 1009.4
20260505230659 50 285 6.0 8.0 0.00 0.00 0.00 53 1009.4
20260505230157 49 288 5.0 5.0 0.00 0.00 0.00 53 1009.3
20260505225158 49 278 10.0 14.0 0.00 0.00 0.00 52 1009.3
20260505224657 49 307 3.0 10.0 0.00 0.00 0.00 53 1009.3
20260505224157 49 316 6.0 15.0 0.00 0.00 0.00 52 1009.2
20260505223657 49 268 4.0 14.0 0.00 0.00 0.00 52 1009.4
20260505223158 50 320 4.0 13.0 0.00 0.00 0.00 53 1009.3
20260505222157 50 302 0.0 8.0 0.00 0.00 0.00 53 1009.2
20260505221656 50 267 7.0 14.0 0.00 0.00 0.00 52 1009.3
20260505221156 50 322 5.0 12.0 0.00 0.00 0.00 53 1009.3
20260505220656 49 334 6.0 10.0 0.00 0.00 0.00 53 1009.2
20260505220156 50 322 10.0 14.0 0.00 0.00 0.00 52 1009.3
20260505215157 50 286 5.0 7.0 0.00 0.00 0.00 52 1009.3
20260505214656 50 248 5.0 13.0 0.00 0.00 0.00 52 1009.4
20260505214156 50 303 3.0 12.0 0.00 0.00 0.00 51 1009.4
20260505213656 50 338 6.0 7.0 0.00 0.00 0.00 52 1009.5
20260505213156 51 261 5.0 11.0 0.00 0.00 0.00 51 1009.4
20260505212157 50 309 0.0 12.0 0.00 0.00 0.00 51 1009.5
20260505211657 50 319 5.0 8.0 0.00 0.00 0.00 52 1009.4
20260505211157 50 265 0.0 6.0 0.00 0.00 0.00 52 1009.5
20260505210657 50 282 4.0 9.0 0.00 0.00 0.00 52 1009.6
20260505210158 50 288 6.0 14.0 0.00 0.00 0.00 52 1009.6
20260505205206 50 298 8.0 17.0 0.00 0.00 0.00 51 1009.6
20260505204657 50 274 0.0 10.0 0.00 0.00 0.00 52 1009.5
20260505204158 50 302 0.0 6.0 0.00 0.00 0.00 52 1009.5
20260505203157 50 188 2.0 15.0 0.00 0.00 0.00 51 1009.5
20260505202658 51 309 8.0 10.0 0.00 0.00 0.00 50 1009.6